CAPE
620 558 1012 936 1014 618 89 69 71 40 3 0 0 0 0 0 0 0 0 0 0 0 0 51 127 244 138 159 237 324 214 255 188 155 38 0 0 0 0 0 0 0 0
1138 892 790 819 618 1009 409 131 34 31 16 13 0 0 0 0 0 0 0 0 0 0 0 35 68 108 160 168 206 408 251 192 161 202 122 0 0 0 0 0 0 0 0
707 694 773 824 1079 938 670 309 57 38 19 1 0 0 0 0 0 0 0 0 0 0 0 0 53 94 149 186 204 327 363 380 284 366 185 0 0 0 0 0 0 0 0
574 665 698 528 588 931 902 577 228 47 27 10 1 0 0 0 0 0 0 0 0 0 0 0 71 104 160 181 201 254 411 472 379 381 278 65 0 0 0 0 0 0 0
449 611 496 343 368 694 588 513 405 199 123 43 14 5 0 0 0 0 0 0 0 0 9 30 24 19 63 148 144 197 240 426 324 325 471 161 6 0 0 0 0 2 0
99 205 275 246 257 486 658 376 316 259 216 180 35 1 0 0 0 0 0 2 1 9 37 79 95 65 52 47 141 182 238 247 270 382 535 253 57 3 0 0 1 16 12
177 153 140 145 245 373 318 321 538 387 277 239 119 83 28 8 2 0 0 2 8 46 70 112 155 163 118 91 103 183 189 205 165 309 566 345 142 47 3 2 11 28 31
291 237 235 198 196 319 193 276 319 330 293 246 127 120 29 0 1 0 0 0 2 67 88 112 149 176 142 182 99 79 145 171 167 146 378 532 253 113 39 14 20 44 48
384 346 310 267 221 190 352 351 385 164 107 111 67 64 26 9 0 10 3 16 41 44 71 77 72 87 81 106 81 46 43 62 94 154 215 676 384 175 91 70 70 71 61
269 329 388 345 292 248 192 288 250 253 107 67 39 46 51 52 49 35 3 2 11 29 31 81 39 51 58 37 43 36 43 55 68 175 177 431 394 269 148 114 115 69 70
321 430 469 410 264 288 186 121 22 26 52 65 66 59 49 43 28 63 8 1 11 14 48 43 48 51 29 48 32 33 26 37 60 124 174 166 372 245 206 156 118 67 62
344 370 522 498 339 245 80 27 46 44 47 59 35 52 54 37 56 3 28 34 5 5 64 75 45 29 27 16 34 34 14 6 8 38 79 174 185 166 138 131 75 66 46
242 295 339 552 454 232 156 83 24 31 54 47 41 75 38 26 39 8 7 1 4 11 39 22 22 19 7 6 5 12 6 7 4 1 32 122 105 47 17 24 51 73 0
233 248 376 401 332 182 85 52 40 40 47 32 29 9 44 11 9 3 0 3 0 6 9 3 13 6 3 6 7 16 7 1 2 4 1 56 49 3 0 0 4 6 0
387 364 325 241 165 122 104 81 39 79 29 17 16 6 7 1 1 26 22 45 6 0 3 0 0 0 3 7 4 12 4 1 3 0 0 0 5 0 0 0 4 0 0
223 178 149 72 117 103 77 55 61 27 26 5 2 3 6 2 34 39 34 36 35 0 0 7 2 8 1 2 8 0 5 5 0 1 7 3 1 0 2 1 2 2 1
101 104 72 64 51 65 8 29 9 8 35 18 9 3 1 2 31 44 0 0 0 2 5 1 1 19 9 6 1 1 0 0 0 0 12 32 23 17 14 1 8 6 9
67 55 43 6 8 12 32 18 3 45 46 0 4 2 0 3 0 9 13 14 9 4 10 18 3 0 0 0 12 1 0 0 2 0 4 3 22 12 25 28 8 6 4
7 35 6 10 12 14 22 8 7 3 14 17 5 3 18 9 12 18 11 19 3 0 0 0 0 0 0 0 2 0 0 0 0 0 1 13 5 0 0 6 6 16 16
3 0 0 0 2 0 0 0 0 0 0 0 0 0 0 0 0 0 0 0 0 0 0 0 0 0 0 1 3 0 0 0 0 0 0 0 0 4 20 2 7 4 14
0 0 0 0 0 0 0 0 0 0 0 0 0 0 0 0 0 0 0 0 0 0 0 0 0 0 0 0 0 0 0 2 3 1 0 0 0 5 11 28 3 1 1
0 0 0 0 0 0 0 0 0 0 0 0 0 0 0 0 0 0 0 0 0 0 0 0 0 0 0 0 0 0 0 0 0 2 0 0 0 7 19 38 9 1 14
0 0 0 0 0 0 0 0 0 0 0 0 0 0 0 0 0 0 0 0 0 0 0 0 0 0 0 0 0 0 0 0 0 20 4 2 2 0 2 43 6 0 0
0 0 0 0 0 0 0 0 0 0 0 0 0 0 0 0 0 0 0 0 0 0 0 0 0 0 0 0 0 18 22 13 7 24 2 7 0 3 2 16 6 0 0
0 0 0 0 0 0 0 0 0 0 0 0 0 0 0 0 0 0 0 0 0 0 0 0 0 0 0 15 40 40 5 0 2 8 2 3 3 3 1 0 0 0 0
0 0 0 0 0 0 0 0 0 0 0 0 0 0 0 0 0 0 0 0 0 0 0 0 0 0 0 0 28 19 20 1 8 18 3 0 6 0 4 0 0 0 0
CIN
-11 -10 -0 -2 -1 -5 -16 -26 -34 -2 -1 -0 -0 -0 -0 -0 -0 -0 -0 -0 -0 -0 -0 -21 -13 -53 -0 -0 -52 -16 -25 -17 -16 -12 -1 -0 -0 -0 -0 -0 -0 -0 -0
-6 -7 -5 -0 -0 -1 -0 -28 -14 -17 -2 -1 -0 -0 -0 -0 -0 -0 -0 -0 -0 -0 -0 -45 -27 -15 -5 -1 -2 -4 -29 -4 -1 -0 -0 -0 -0 -0 -0 -0 -0 -0 -0
-6 -8 -9 -7 -0 -1 -0 -1 -7 -4 -17 -5 -0 -0 -0 -0 -0 -0 -0 -0 -0 -0 -0 -0 -47 -30 -21 -12 -5 -24 -9 -3 -7 -0 -0 -0 -0 -0 -0 -0 -0 -0 -0
-0 -0 -2 -3 -6 -2 -0 -2 -4 -21 -28 -38 -6 -4 -11 -0 -0 -0 -0 -0 -0 -0 -0 -0 -84 -56 -45 -26 -75 -28 -1 -0 -0 -0 -6 -2 -0 -0 -0 -0 -0 -0 -0
-0 -0 -0 -1 -2 -3 -1 -0 -0 -0 -1 -27 -26 -27 -0 -0 -0 -0 -0 -0 -0 -0 -28 -25 -47 -97 -127 -65 -41 -22 -11 -0 -4 -14 -4 -0 -11 -0 -0 -0 -0 -0 -0
-21 -5 -0 -0 -1 -0 -1 -1 -3 -3 -0 -0 -11 -4 -0 -0 -0 -0 -0 -111 -102 -129 -56 -51 -38 -55 -57 -77 -90 -52 -26 -14 -5 -0 -0 -0 -13 -9 -0 -0 -0 -0 -0
-17 -5 -16 -13 -0 -0 -4 -0 -0 -1 -1 -1 -0 -1 -2 -2 -0 -0 -0 -77 -109 -87 -40 -34 -11 -30 -36 -41 -130 -86 -70 -49 -50 -7 -1 -0 -9 -16 -55 -0 -0 -0 -0
-18 -13 -12 -17 -8 -6 -27 -3 -2 -4 -1 -2 -1 -0 -0 -1 -0 -0 -0 -0 -51 -67 -18 -17 -14 -19 -40 -36 -41 -39 -121 -87 -78 -73 -9 -2 -6 -20 -10 -21 -2 -0 -0
-15 -8 -11 -13 -40 -19 -4 -3 -0 -2 -0 -0 -0 -0 -0 -0 -0 -15 -58 -2 -35 -78 -52 -23 -68 -42 -58 -76 -70 -48 -33 -90 -94 -40 -19 -0 -0 -4 -11 -2 -0 -0 -0
-21 -19 -16 -15 -32 -29 -17 -2 -0 -0 -1 -1 -0 -1 -0 -3 -0 -7 -2 -11 -29 -106 -110 -116 -160 -165 -162 -159 -125 -78 -69 -25 -102 -33 -10 -0 -0 -0 -0 -0 -0 -0 -0
-24 -10 -5 -11 -30 -17 -13 -4 -0 -0 -0 -0 -0 -0 -0 -0 -0 -0 -0 -5 -6 -83 -117 -151 -167 -164 -77 -31 -118 -134 -40 -43 -89 -31 -9 -0 -0 -0 -0 -0 -0 -0 -0
-23 -30 -11 -10 -10 -9 -25 -16 -1 -0 -0 -1 -0 -2 -0 -0 -0 -16 -1 -0 -5 -6 -41 -72 -112 -91 -78 -66 -108 -96 -93 -72 -40 -42 -1 -13 -1 -0 -0 -0 -0 -0 -0
-47 -60 -35 -2 -1 -4 -4 -4 -10 -5 -0 -0 -1 -1 -1 -1 -0 -1 -1 -0 -0 -10 -40 -78 -73 -63 -97 -50 -33 -0 -29 -0 -16 -10 -0 -16 -0 -1 -5 -1 -0 -0 -0
-47 -54 -8 -0 -0 -14 -9 -16 -11 -9 -0 -2 -0 -0 -0 -0 -6 -4 -0 -0 -0 -4 -11 -9 -63 -73 -73 -58 -18 -8 -3 -2 -7 -1 -0 -0 -1 -0 -0 -1 -2 -0 -0
-11 -10 -3 -6 -10 -6 -0 -1 -8 -0 -0 -2 -0 -0 -0 -7 -0 -14 -5 -6 -0 -0 -0 -0 -3 -44 -70 -7 -0 -0 -0 -0 -10 -0 -0 -0 -0 -0 -0 -0 -0 -0 -0
-19 -22 -4 -31 -6 -0 -0 -0 -3 -1 -4 -0 -3 -2 -0 -2 -9 -1 -0 -1 -0 -0 -0 -1 -73 -188 -44 -0 -9 -2 -2 -3 -0 -2 -4 -5 -0 -4 -4 -0 -1 -1 -0
-4 -0 -3 -1 -0 -0 -7 -1 -1 -1 -0 -0 -0 -0 -0 -0 -0 -0 -0 -0 -0 -0 -0 -0 -165 -205 -27 -0 -0 -0 -0 -0 -0 -0 -1 -0 -2 -1 -0 -5 -0 -2 -0
-0 -2 -6 -16 -6 -0 -0 -0 -0 -0 -0 -0 -0 -0 -0 -44 -0 -71 -0 -1 -143 -62 -131 -176 -0 -0 -0 -0 -0 -0 -0 -0 -1 -0 -0 -3 -0 -0 -2 -4 -4 -0 -0
-0 -0 -0 -12 -0 -0 -1 -9 -17 -19 -24 -51 -48 -41 -71 -109 -102 -73 -0 -149 -0 -0 -0 -0 -0 -0 -0 -0 -0 -0 -0 -0 -0 -0 -1 -3 -0 -0 -0 -22 -0 -6 -3
-0 -0 -0 -0 -0 -0 -0 -0 -0 -0 -0 -0 -0 -0 -0 -0 -0 -0 -0 -0 -0 -0 -0 -0 -0 -0 -0 -0 -0 -0 -0 -0 -0 -0 -0 -0 -0 -0 -0 -0 -0 -0 -4
-0 -0 -0 -0 -0 -0 -0 -0 -0 -0 -0 -0 -0 -0 -0 -0 -0 -0 -0 -0 -0 -0 -0 -0 -0 -0 -0 -0 -0 -0 -0 -0 -0 -0 -0 -0 -5 -8 -0 -3 -2 -0 -0
-0 -0 -0 -0 -0 -0 -0 -0 -0 -0 -0 -0 -0 -0 -0 -0 -0 -0 -0 -0 -0 -0 -0 -0 -0 -0 -0 -0 -0 -0 -0 -0 -0 -0 -0 -0 -0 -0 -0 -0 -6 -0 -0
-0 -0 -0 -0 -0 -0 -0 -0 -0 -0 -0 -0 -0 -0 -0 -0 -0 -0 -0 -0 -0 -0 -0 -0 -0 -0 -0 -0 -0 -0 -0 -0 -0 -2 -0 -0 -1 -0 -0 -0 -0 -0 -0
-0 -0 -0 -0 -0 -0 -0 -0 -0 -0 -0 -0 -0 -0 -0 -0 -0 -0 -0 -0 -0 -0 -0 -0 -0 -0 -0 -0 -0 -0 -0 -0 -0 -0 -0 -0 -0 -1 -21 -6 -32 -0 -0
-0 -0 -0 -0 -0 -0 -0 -0 -0 -0 -0 -0 -0 -0 -0 -0 -0 -0 -0 -0 -0 -0 -0 -0 -0 -0 -0 -0 -0 -0 -0 -0 -0 -0 -1 -3 -6 -3 -3 -0 -0 -0 -0
-0 -0 -0 -0 -0 -0 -0 -0 -0 -0 -0 -0 -0 -0 -0 -0 -0 -0 -0 -0 -0 -0 -0 -0 -0 -0 -0 -0 -0 -0 -0 -0 -0 -0 -0 -0 -0 -0 -5 -0 -0 -0 -0
Wind_Speed
36 33 33 32 30 28 nan nan nan nan nan nan nan nan nan nan nan nan nan nan nan nan nan nan 24 24 25 24 25 26 26 29 29 31 nan nan nan nan nan nan nan nan nan
40 37 35 32 31 33 31 31 nan nan nan nan nan nan nan nan nan nan nan nan nan nan nan nan nan 26 27 27 27 29 35 33 31 32 34 nan nan nan nan nan nan nan nan
48 41 40 36 32 33 31 34 nan nan nan nan nan nan nan nan nan nan nan nan nan nan nan nan nan nan 28 29 28 29 34 35 34 33 34 nan nan nan nan nan nan nan nan
51 47 42 38 38 34 34 32 32 nan nan nan nan nan nan nan nan nan nan nan nan nan nan nan nan 33 32 31 30 30 33 36 36 35 36 nan nan nan nan nan nan nan nan
53 50 47 40 39 40 36 36 36 34 33 nan nan nan nan nan nan nan nan nan nan nan nan nan nan nan nan 36 33 33 34 37 39 40 37 41 nan nan nan nan nan nan nan
nan 55 52 47 41 43 42 39 36 38 39 39 nan nan nan nan nan nan nan nan nan nan nan nan nan nan nan nan 41 40 40 41 41 41 38 45 nan nan nan nan nan nan nan
56 57 57 52 49 47 45 40 40 40 41 40 40 nan nan nan nan nan nan nan nan nan nan 46 55 56 53 nan 48 47 48 47 41 38 44 46 50 nan nan nan nan nan nan
56 59 57 56 52 54 47 46 45 47 46 44 47 45 nan nan nan nan nan nan nan nan nan 46 52 55 60 64 nan nan 51 46 44 42 43 45 49 42 nan nan nan nan nan
56 57 57 58 57 56 54 50 50 51 50 51 nan nan nan nan nan nan nan nan nan nan nan nan nan nan nan 52 nan nan nan nan nan 27 33 37 27 29 nan nan nan nan nan
53 55 55 56 56 57 52 51 51 48 49 nan nan nan nan nan nan nan nan nan nan nan nan nan nan nan nan nan nan nan nan nan nan 22 20 20 27 32 36 34 33 nan nan
50 50 52 53 54 55 53 52 nan nan nan nan nan nan nan nan nan nan nan nan nan nan nan nan nan nan nan nan nan nan nan nan nan 22 22 19 25 28 35 36 30 nan nan
51 46 46 52 50 51 nan nan nan nan nan nan nan nan nan nan nan nan nan nan nan nan nan nan nan nan nan nan nan nan nan nan nan nan nan 25 23 27 26 20 nan nan nan
47 46 42 46 50 48 48 nan nan nan nan nan nan nan nan nan nan nan nan nan nan nan nan nan nan nan nan nan nan nan nan nan nan nan nan 23 24 nan nan nan nan nan nan
44 41 40 41 42 46 nan nan nan nan nan nan nan nan nan nan nan nan nan nan nan nan nan nan nan nan nan nan nan nan nan nan nan nan nan nan nan nan nan nan nan nan nan
40 36 35 33 34 41 44 nan nan nan nan nan nan nan nan nan nan nan nan nan nan nan nan nan nan nan nan nan nan nan nan nan nan nan nan nan nan nan nan nan nan nan nan
42 43 45 nan 34 40 nan nan nan nan nan nan nan nan nan nan nan nan nan nan nan nan nan nan nan nan nan nan nan nan nan nan nan nan nan nan nan nan nan nan nan nan nan
42 41 nan nan nan nan nan nan nan nan nan nan nan nan nan nan nan nan nan nan nan nan nan nan nan nan nan nan nan nan nan nan nan nan nan nan nan nan nan nan nan nan nan
nan nan nan nan nan nan nan nan nan nan nan nan nan nan nan nan nan nan nan nan nan nan nan nan nan nan nan nan nan nan nan nan nan nan nan nan nan nan nan nan nan nan nan
nan nan nan nan nan nan nan nan nan nan nan nan nan nan nan nan nan nan nan nan nan nan nan nan nan nan nan nan nan nan nan nan nan nan nan nan nan nan nan nan nan nan nan
nan nan nan nan nan nan nan nan nan nan nan nan nan nan nan nan nan nan nan nan nan nan nan nan nan nan nan nan nan nan nan nan nan nan nan nan nan nan nan nan nan nan nan
nan nan nan nan nan nan nan nan nan nan nan nan nan nan nan nan nan nan nan nan nan nan nan nan nan nan nan nan nan nan nan nan nan nan nan nan nan nan nan nan nan nan nan
nan nan nan nan nan nan nan nan nan nan nan nan nan nan nan nan nan nan nan nan nan nan nan nan nan nan nan nan nan nan nan nan nan nan nan nan nan nan nan nan nan nan nan
nan nan nan nan nan nan nan nan nan nan nan nan nan nan nan nan nan nan nan nan nan nan nan nan nan nan nan nan nan nan nan nan nan nan nan nan nan nan nan nan nan nan nan
nan nan nan nan nan nan nan nan nan nan nan nan nan nan nan nan nan nan nan nan nan nan nan nan nan nan nan nan nan nan nan nan nan nan nan nan nan nan nan nan nan nan nan
nan nan nan nan nan nan nan nan nan nan nan nan nan nan nan nan nan nan nan nan nan nan nan nan nan nan nan nan nan nan nan nan nan nan nan nan nan nan nan nan nan nan nan
nan nan nan nan nan nan nan nan nan nan nan nan nan nan nan nan nan nan nan nan nan nan nan nan nan nan nan nan nan nan nan nan nan nan nan nan nan nan nan nan nan nan nan
Wind_Direction
264 267 269 268 266 265 nan nan nan nan nan nan nan nan nan nan nan nan nan nan nan nan nan nan 284 284 284 292 294 294 295 297 301 310 nan nan nan nan nan nan nan nan nan
261 264 265 269 275 267 269 271 nan nan nan nan nan nan nan nan nan nan nan nan nan nan nan nan nan 286 283 284 290 289 291 294 293 304 308 nan nan nan nan nan nan nan nan
262 265 263 264 265 266 267 270 nan nan nan nan nan nan nan nan nan nan nan nan nan nan nan nan nan nan 287 287 285 286 288 292 292 298 304 nan nan nan nan nan nan nan nan
265 266 265 266 262 261 263 264 266 nan nan nan nan nan nan nan nan nan nan nan nan nan nan nan nan 289 287 287 288 288 288 289 290 292 298 nan nan nan nan nan nan nan nan
263 263 262 261 259 254 258 268 263 267 274 nan nan nan nan nan nan nan nan nan nan nan nan nan nan nan nan 287 289 287 288 286 284 287 299 303 nan nan nan nan nan nan nan
nan 260 259 260 257 260 262 265 267 268 268 275 nan nan nan nan nan nan nan nan nan nan nan nan nan nan nan nan 286 287 284 283 283 289 294 301 nan nan nan nan nan nan nan
262 258 257 257 256 257 256 263 268 273 275 276 276 nan nan nan nan nan nan nan nan nan nan 285 271 272 276 nan 283 282 282 283 282 288 294 300 304 nan nan nan nan nan nan
256 257 258 258 255 255 260 263 270 272 272 278 279 278 nan nan nan nan nan nan nan nan nan 290 290 287 274 273 nan nan 281 280 286 302 296 302 307 309 nan nan nan nan nan
256 254 256 258 260 256 260 267 271 276 273 273 nan nan nan nan nan nan nan nan nan nan nan nan nan nan nan 291 nan nan nan nan nan 316 312 312 315 316 nan nan nan nan nan
256 255 254 256 261 261 263 265 271 276 278 nan nan nan nan nan nan nan nan nan nan nan nan nan nan nan nan nan nan nan nan nan nan 313 317 326 323 322 317 318 315 nan nan
253 254 254 255 255 259 263 266 nan nan nan nan nan nan nan nan nan nan nan nan nan nan nan nan nan nan nan nan nan nan nan nan nan 314 303 322 319 308 314 320 320 nan nan
250 253 255 252 254 258 nan nan nan nan nan nan nan nan nan nan nan nan nan nan nan nan nan nan nan nan nan nan nan nan nan nan nan nan nan 342 326 319 315 320 nan nan nan
250 249 252 252 252 255 260 nan nan nan nan nan nan nan nan nan nan nan nan nan nan nan nan nan nan nan nan nan nan nan nan nan nan nan nan 351 347 nan nan nan nan nan nan
247 247 248 251 250 254 nan nan nan nan nan nan nan nan nan nan nan nan nan nan nan nan nan nan nan nan nan nan nan nan nan nan nan nan nan nan nan nan nan nan nan nan nan
242 247 246 244 246 251 255 nan nan nan nan nan nan nan nan nan nan nan nan nan nan nan nan nan nan nan nan nan nan nan nan nan nan nan nan nan nan nan nan nan nan nan nan
235 238 235 nan 241 249 nan nan nan nan nan nan nan nan nan nan nan nan nan nan nan nan nan nan nan nan nan nan nan nan nan nan nan nan nan nan nan nan nan nan nan nan nan
234 238 nan nan nan nan nan nan nan nan nan nan nan nan nan nan nan nan nan nan nan nan nan nan nan nan nan nan nan nan nan nan nan nan nan nan nan nan nan nan nan nan nan
nan nan nan nan nan nan nan nan nan nan nan nan nan nan nan nan nan nan nan nan nan nan nan nan nan nan nan nan nan nan nan nan nan nan nan nan nan nan nan nan nan nan nan
nan nan nan nan nan nan nan nan nan nan nan nan nan nan nan nan nan nan nan nan nan nan nan nan nan nan nan nan nan nan nan nan nan nan nan nan nan nan nan nan nan nan nan
nan nan nan nan nan nan nan nan nan nan nan nan nan nan nan nan nan nan nan nan nan nan nan nan nan nan nan nan nan nan nan nan nan nan nan nan nan nan nan nan nan nan nan
nan nan nan nan nan nan nan nan nan nan nan nan nan nan nan nan nan nan nan nan nan nan nan nan nan nan nan nan nan nan nan nan nan nan nan nan nan nan nan nan nan nan nan
nan nan nan nan nan nan nan nan nan nan nan nan nan nan nan nan nan nan nan nan nan nan nan nan nan nan nan nan nan nan nan nan nan nan nan nan nan nan nan nan nan nan nan
nan nan nan nan nan nan nan nan nan nan nan nan nan nan nan nan nan nan nan nan nan nan nan nan nan nan nan nan nan nan nan nan nan nan nan nan nan nan nan nan nan nan nan
nan nan nan nan nan nan nan nan nan nan nan nan nan nan nan nan nan nan nan nan nan nan nan nan nan nan nan nan nan nan nan nan nan nan nan nan nan nan nan nan nan nan nan
nan nan nan nan nan nan nan nan nan nan nan nan nan nan nan nan nan nan nan nan nan nan nan nan nan nan nan nan nan nan nan nan nan nan nan nan nan nan nan nan nan nan nan
nan nan nan nan nan nan nan nan nan nan nan nan nan nan nan nan nan nan nan nan nan nan nan nan nan nan nan nan nan nan nan nan nan nan nan nan nan nan nan nan nan nan nan